Location: Greenwich
(51.4790°N, 0.0090°E)
Time: 16:07:53
(UTC+01:00)

S-56A Canister/Altair - All Passes

Search period start: 23 June 2025 00:00
Search period end: 03 July 2025 00:00
Orbit: 632 x 2486 km, 38.9° (Epoch: 23 June)

Date Brightness Start Highest point End Pass type
(mag) Time Alt. Az. Time Alt. Az. Time Alt. Az.
23 Jun - 01:15:12 10° SSE 01:21:07 16° SE 01:27:53 10° E visible
23 Jun - 03:13:30 10° SSW 03:23:48 37° SSE 03:36:27 10° E visible
23 Jun - 05:15:56 10° WSW 05:28:15 49° S 05:42:17 10° ESE daylight
23 Jun - 07:20:12 10° W 07:33:15 43° SSW 07:46:26 10° SE daylight
23 Jun - 09:26:25 10° W 09:37:17 25° SW 09:47:29 10° S daylight
24 Jun - 00:42:31 10° SSE 00:46:26 12° SE 00:50:46 10° ESE visible
24 Jun - 02:39:12 10° SSW 02:48:45 33° SSE 03:00:43 10° E visible
24 Jun - 04:41:09 10° WSW 04:52:54 48° S 05:06:52 10° ESE daylight
24 Jun - 06:45:05 10° W 06:57:53 45° SSW 07:11:26 10° SE daylight
24 Jun - 08:50:45 10° W 09:02:10 28° SW 09:13:10 10° SSE daylight
25 Jun - 02:05:02 10° SSW 02:13:48 30° SE 02:24:53 10° E visible
25 Jun - 04:06:28 10° SW 04:17:37 46° SSE 04:31:22 10° ESE daylight
25 Jun - 06:10:02 10° WSW 06:22:31 46° SSW 06:36:18 10° SE daylight
25 Jun - 08:15:15 10° W 08:26:59 31° SSW 08:38:41 10° SSE daylight
25 Jun - 10:26:03 10° WSW 10:29:55 11° SW 10:33:43 10° SW daylight
26 Jun - 01:31:01 10° SSW 01:38:56 26° SE 01:48:58 10° E visible
26 Jun - 03:31:53 10° SW 03:42:24 44° SSE 03:55:47 10° E visible
26 Jun - 05:35:06 10° WSW 05:47:09 47° S 06:01:03 10° ESE daylight
26 Jun - 07:39:54 10° W 07:51:46 33° SSW 08:04:01 10° SSE daylight
26 Jun - 09:48:38 10° WSW 09:55:02 14° SW 10:01:20 10° SSW daylight
27 Jun - 00:57:12 10° S 01:04:11 22° SE 01:12:56 10° E visible
27 Jun - 02:57:25 10° SW 03:07:16 42° SSE 03:20:08 10° E visible
27 Jun - 05:00:16 10° WSW 05:11:48 47° S 05:25:43 10° ESE daylight
27 Jun - 07:04:41 10° W 07:16:31 36° SSW 07:29:12 10° SSE daylight
27 Jun - 09:12:10 10° W 09:20:05 17° SW 09:27:56 10° SSW daylight
28 Jun - 00:23:36 10° S 00:29:30 18° SE 00:36:45 10° E visible
28 Jun - 02:23:04 10° SW 02:32:13 39° SSE 02:44:26 10° E visible
28 Jun - 04:25:32 10° WSW 04:36:31 47° S 04:50:17 10° ESE daylight
28 Jun - 06:29:35 10° W 06:41:15 38° SSW 06:54:15 10° SE daylight
28 Jun - 08:36:11 10° W 08:45:04 19° SW 08:54:05 10° S daylight
28 Jun - 23:50:22 10° SSE 23:54:55 15° SE 00:00:16 10° ESE visible
29 Jun - 01:48:48 10° SW 01:57:16 35° SSE 02:08:41 10° E visible
29 Jun - 03:50:54 10° WSW 04:01:17 47° S 04:14:46 10° ESE visible
29 Jun - 05:54:36 10° W 06:05:58 39° SSW 06:19:10 10° SE daylight
29 Jun - 08:00:29 10° W 08:09:59 22° SW 08:19:55 10° S daylight
29 Jun - 23:18:03 10° SE 23:20:25 11° SE 23:23:00 10° ESE visible
30 Jun - 01:14:40 10° SSW 01:22:25 32° SSE 01:32:53 10° E visible
30 Jun - 03:16:20 10° WSW 03:26:07 45° S 03:39:11 10° ESE visible
30 Jun - 05:19:44 10° W 05:30:41 41° SSW 05:43:58 10° SE daylight
30 Jun - 07:25:01 10° W 07:34:53 24° SW 07:45:30 10° S daylight
01 Jul - 00:40:38 10° SSW 00:47:39 28° SSE 00:57:03 10° E visible
01 Jul - 02:41:53 10° WSW 02:51:02 44° S 03:03:33 10° ESE visible
01 Jul - 04:44:57 10° WSW 04:55:27 42° SSW 05:08:39 10° SE daylight
01 Jul - 06:49:45 10° W 06:59:44 26° SW 07:10:53 10° SSE daylight
02 Jul - 00:06:45 10° SSW 00:12:59 24° SE 00:21:11 10° E visible
02 Jul - 02:07:31 10° SW 02:16:02 41° SSE 02:27:53 10° ESE visible
02 Jul - 04:10:17 10° WSW 04:20:16 42° S 04:33:15 10° SE daylight
02 Jul - 06:14:37 10° W 06:24:35 28° SSW 06:36:05 10° SSE daylight
02 Jul - 08:25:42 10° WSW 08:27:55 10° SW 08:30:10 10° SW daylight
02 Jul - 23:33:02 10° S 23:38:24 20° SE 23:45:15 10° E visible
